Погода в им. Тельмана

Россия / Еврейская автономная область     48°32′50″N   134°58′32″E
В апреле 2022 года жителям России запретили посещать сайт meteo.paraplan.net по решению Генеральной прокуратуры. Аудитория сайта уменьшилась в 10 раз. Владельцы сайта не видят смысла в поддержке погодного сервера в таких условиях. Сайт будет закрыт в октябре.
темп.,
°C
ветер,
м/с
пор.,
м/с
влажн.,
%
обл.,
%
осадки,
мм/ч
давл.,
гПа
погр.,
м
4 октября, вт
вт401:00+3зсз81373100 0.9 1012777
04:00+2з8146416 1.1 1012755
07:000з815670 0.0 1013699
10:00+2з913555 0.0 10121315
13:00+5зсз81044100 0.0 10121890
16:00+6зсз794223 0.0 10111903
19:00+3з612525 0.0 1012364
22:00+2зсз613625 0.0 1013474
5 октября, ср
ср501:000з511670 0.0 1014358
04:00−1з512700 0.0 1015339
07:00−1зюз512660 0.0 1016325
10:00+3з710450 0.0 10171263
13:00+6з8104096 0.0 10162122
16:00+6з71045100 0.0 10152088
19:00+3зюз41055100 0.1 1016226
22:00+1зюз5116373 0.1 1016240
6 октября, чт
чт601:00−1зюз511685 0.0 1017244
04:00−1зюз613692 0.0 1017323
07:000зюз614650 0.0 1018407
10:00+4з811510 0.0 10191091
13:00+6з912405 0.0 10181837
16:00+8з8124458 0.0 10182419
19:00+4зюз512523 0.0 1019240
22:00+2юз486314 0.0 1020122
7 октября, пт
пт701:000юз47700 0.0 1020107
04:000юз47680 0.0 1021117
07:00−1юз48690 0.0 1022148
10:00+5зюз69505 0.0 1022483
13:00+9зюз69395 0.0 10211588
16:00+10з68435 0.0 10211952
19:00+5юз47595 0.0 102298
22:00+3юз48650 0.0 1023121
8 октября, сб
сб801:00+2зюз35680 0.0 102469
04:00+1юз36690 0.0 102478
07:00+1юз347268 0.0 102465
10:00+6юз4557100 0.0 1025326
13:00+9зюз4549100 0.0 1024748
16:00+9зюз354856 0.0 10241043
19:00+6юз1160100 0.0 102510
22:00+6ююв2262100 0.0 102613